Simultaneous Nadir Overpasses (SNOs) Predictions

Prediction of SNOs between FY3D and NOAA-19 Satellite Orbit:

Table of predicted SNOs for the next 14.0 days since TLE Epoch: 7/20/2019
Index Date (FY3D) Time (FY3D) Lat,Lon (FY3D) SZA (FY3D ) Date (NOAA-19) Time (NOAA-19) Lat,Lon (NOAA-19) SZA (NOAA-19 ) Distance(km) Time Diff (sec)
1 07/22/2019 21:21:28 -80.03, 1.75 117.77 07/22/2019 21:20:18 -80.04, 1.76 117.73 1.29 70
2 07/22/2019 22:12:13 80.05, 168.90 62.27 07/22/2019 22:11:17 80.05, 169.08 62.28 3.37 56
3 07/22/2019 23:02:58 -80.06, -23.88 117.71 07/22/2019 23:02:19 -80.04, -23.81 117.71 2.38 39
4 07/22/2019 23:53:42 80.04, 143.58 62.27 07/22/2019 23:53:18 80.04, 143.52 62.29 1.16 24
5 07/23/2019 00:44:27 -80.05, -49.20 117.71 07/23/2019 00:44:19 -80.06, -49.06 117.72 2.83 8
6 07/23/2019 01:35:11 80.04, 118.25 62.28 07/23/2019 01:35:18 80.06, 118.27 62.29 2.63 7
7 07/23/2019 02:25:56 -80.05, -74.53 117.70 07/23/2019 02:26:20 -80.05, -74.62 117.70 1.93 24
8 07/23/2019 03:16:41 80.06, 92.63 62.34 07/23/2019 03:17:19 80.06, 92.71 62.31 1.73 38
9 07/23/2019 04:07:26 -80.07,-100.15 117.64 07/23/2019 04:08:21 -80.05,-100.19 117.68 2.78 55




NCC Satellite Simultaneous Nadir Overpasses (SNOs) Prediction Service
